Regional Weather Roundup
Issued by NWS Little Rock, AR

Home | Current Version | Previous Version | Text Only | Print | Product List | Glossary Off
Versions: 1 2 3 4 5 6 7 8 9 10 11 12 13 14 15 16 17 18 19 20 21 22 23 24 25 26 27 28 29 30 31

000
ASUS44 KLZK 061405
RWRLZK

WEATHER ROUNDUP FOR ARKANSAS
NATIONAL WEATHER SERVICE LITTLE ROCK AR
800 AM CST TUE DEC 06 2016

NOTE: "FAIR" INDICATES FEW OR NO CLOUDS BELOW 12,000 FEET WITH NO
SIGNIFICANT WEATHER AND/OR OBSTRUCTIONS TO VISIBILITY.

ARZ001-003-010-029-061500-
NORTHWEST ARKANSAS

CITY           SKY/WX    TMP DP  RH WIND       PRES   REMARKS
FAYETTEVILLE   CLOUDY    42  40  92 N6        29.89R
FORT SMITH     CLOUDY    47  41  80 N7G20     29.90R
HARRISON       MOCLDY    39  38  96 NW12      29.86R
BENTONVILLE    CLOUDY    43  34  70 N12G20    29.90R
ROGERS         CLOUDY    41  38  89 NW12      29.90R
SILOAM SPGS    CLOUDY    41  37  87 N15G21    29.89R
HIGHFILL       CLOUDY    42  39  89 N17       29.89R
SPRINGDALE     CLOUDY    43  41  93 N9G16     29.90R
$$

ARZ004-005-016-061500-
NORTH CENTRAL ARKANSAS

CITY           SKY/WX    TMP DP  RH WIND       PRES   REMARKS
BATESVILLE     CLOUDY    43  39  87 W12       29.84R
FLIPPIN        CLOUDY    43  36  75 NW7       29.83R
MTN HOME       PTCLDY    40  39  97 N3        29.83R
$$

ARZ040-041-061500-
WEST CENTRAL ARKANSAS

CITY           SKY/WX    TMP DP  RH WIND       PRES   REMARKS
MENA           CLOUDY    50  46  87 NW8       29.86R
MOUNT IDA      MOCLDY    47  43  86 NW3       29.83R
$$

ARZ009-017-025-026-028-061500-
NORTHEAST ARKANSAS

CITY           SKY/WX    TMP DP  RH WIND       PRES   REMARKS
JONESBORO      CLOUDY    43  40  89 NW6       29.80R
NEWPORT        MOCLDY    42  41  96 NW5         N/A
WALNUT RIDGE   PTCLDY    43  37  81 W7        29.80R
BLYTHEVILLE    CLOUDY    44  44 100 NW12      29.77R
NW BLYTHEVILLE CLOUDY    43  41  93 NW13G20   29.76
$$

ARZ022-023-033-042-044-061500-
CENTRAL ARKANSAS

CITY           SKY/WX    TMP DP  RH WIND       PRES   REMARKS
LITTLE ROCK    CLOUDY    45  45 100 NW9       29.85R
N LITTLE ROCK    N/A     44  43  97 NW5       29.87R
JACKSONVILLE   CLOUDY    46  45  99 W7        29.83R
SEARCY         CLEAR     42  42 100 MISG      29.86R
HOT SPRINGS    CLOUDY    47  46  97 W3        29.85R
RUSSELLVILLE   CLOUDY    46  44  93 NW8       29.85R
CLINTON        MOCLDY    45  41  87 NW10G22   29.85R
$$

ARZ036-061500-
EAST ARKANSAS

CITY           SKY/WX    TMP DP  RH WIND       PRES   REMARKS
WEST MEMPHIS   CLOUDY    43  43 100 N8        29.78R
$$

ARZ050-053-066-070-073-061500-
SOUTHWEST ARKANSAS

CITY           SKY/WX    TMP DP  RH WIND       PRES   REMARKS
ARKADELPHIA    CLOUDY    46  45  96 SW6       29.88R
CAMDEN         CLOUDY    46  43  87 SW5       29.88R
TEXARKANA      CLOUDY    47  46  97 W8        29.89R
EL DORADO      CLOUDY    46  45  96 SW6       29.88R
DE QUEEN       CLOUDY    48  48 100 W6        29.86R
$$

ARZ056-057-069-061500-
SOUTHEAST ARKANSAS

CITY           SKY/WX    TMP DP  RH WIND       PRES   REMARKS
PINE BLUFF     MOCLDY    45  44  97 W8        29.84R
STUTTGART      CLOUDY    45  39  81 W9        29.85R
MONTICELLO     CLOUDY    46  44  93 W5        29.85R

$$






USA.gov is the U.S. government's official web portal to all federal, state and local government web resources and services.